| time (UTC) | temp F | wind direction | speed knots | gust knots | rain 1hr in | rain 24hr in | rain mn in | humidity % | barometer mb |
| 20260504000004 | 38 | 293 | 3.5 | 6.1 | 0.00 | 0.00 | 0.00 | 69 | 1006.7 |
| 20260503234502 | 38 | 294 | 2.6 | 4.3 | 0.00 | 0.00 | 0.00 | 70 | 1006.6 |
| 20260503233001 | 38 | 294 | 2.6 | 6.1 | 0.00 | 0.00 | 0.00 | 69 | 1006.5 |
| 20260503231604 | 38 | 288 | 4.3 | 6.1 | 0.00 | 0.00 | 0.00 | 68 | 1006.8 |
| 20260503230108 | 39 | 288 | 2.6 | 3.5 | 0.00 | 0.00 | 0.00 | 68 | 1006.9 |
| 20260503224559 | 39 | 288 | 1.7 | 6.1 | 0.00 | 0.00 | 0.00 | 68 | 1007.0 |
| 20260503223052 | 39 | 288 | 4.3 | 7.0 | 0.00 | 0.00 | 0.00 | 67 | 1007.0 |
| 20260503221550 | 40 | 288 | 3.5 | 4.3 | 0.00 | 0.00 | 0.00 | 66 | 1007.0 |
| 20260503220049 | 40 | 288 | 2.6 | 4.3 | 0.00 | 0.00 | 0.00 | 66 | 1007.2 |
| 20260503214549 | 40 | 287 | 0.9 | 2.6 | 0.00 | 0.00 | 0.00 | 66 | 1007.3 |
| 20260503213046 | 40 | 287 | 3.5 | 8.7 | 0.00 | 0.00 | 0.00 | 65 | 1007.2 |
| 20260503211603 | 40 | 298 | 6.1 | 8.7 | 0.00 | 0.00 | 0.00 | 65 | 1007.3 |
| 20260503210039 | 40 | 290 | 5.2 | 8.7 | 0.00 | 0.00 | 0.00 | 65 | 1007.4 |
| 20260503204539 | 41 | 283 | 6.1 | 10.4 | 0.00 | 0.00 | 0.00 | 64 | 1007.3 |
| 20260503203041 | 41 | 291 | 6.1 | 9.6 | 0.00 | 0.00 | 0.00 | 64 | 1007.4 |
| 20260503201532 | 41 | 274 | 5.2 | 11.3 | 0.00 | 0.00 | 0.00 | 63 | 1007.5 |
| 20260503200035 | 42 | 271 | 6.1 | 10.4 | 0.00 | 0.00 | 0.00 | 62 | 1007.5 |
| 20260503194528 | 42 | 252 | 5.2 | 10.4 | 0.00 | 0.00 | 0.00 | 62 | 1007.5 |
| 20260503193032 | 42 | 269 | 3.5 | 7.0 | 0.00 | 0.00 | 0.00 | 60 | 1007.3 |
| 20260503191526 | 43 | 297 | 4.3 | 7.0 | 0.00 | 0.00 | 0.00 | 60 | 1007.3 |
| 20260503190025 | 43 | 253 | 5.2 | 9.6 | 0.00 | 0.00 | 0.00 | 60 | 1007.4 |
| 20260503184533 | 43 | 275 | 7.0 | 9.6 | 0.00 | 0.00 | 0.00 | 60 | 1007.4 |
| 20260503183023 | 44 | 294 | 6.1 | 10.4 | 0.00 | 0.00 | 0.00 | 59 | 1007.3 |
| 20260503181523 | 44 | 286 | 6.1 | 9.6 | 0.00 | 0.00 | 0.00 | 58 | 1007.4 |
| 20260503180041 | 45 | 284 | 7.0 | 11.3 | 0.00 | 0.00 | 0.00 | 57 | 1007.3 |
| 20260503174526 | 45 | 286 | 4.3 | 9.6 | 0.00 | 0.00 | 0.00 | 57 | 1007.2 |
| 20260503173025 | 46 | 276 | 6.1 | 11.3 | 0.00 | 0.00 | 0.00 | 56 | 1007.2 |
| 20260503171518 | 46 | 267 | 7.0 | 12.2 | 0.00 | 0.00 | 0.00 | 56 | 1007.2 |
| 20260503160114 | 46 | 255 | 6.1 | 10.4 | 0.00 | 0.00 | 0.00 | 61 | 1007.6 |
| 20260503130111 | 51 | 288 | 7.8 | 12.2 | 0.00 | 0.00 | 0.00 | 55 | 1007.8 |
| 20260503081538 | 51 | 258 | 4.3 | 7.0 | 0.00 | 0.00 | 0.00 | 64 | 1007.8 |
| 20260503071518 | 47 | 241 | 3.5 | 10.4 | 0.00 | 0.00 | 0.00 | 66 | 1007.1 |
| 20260503054514 | 44 | 294 | 3.5 | 4.3 | 0.00 | 0.00 | 0.00 | 68 | 1006.3 |
| 20260503053006 | 45 | 305 | 4.3 | 7.8 | 0.00 | 0.00 | 0.00 | 68 | 1006.1 |
| 20260503051508 | 45 | 298 | 3.5 | 7.0 | 0.00 | 0.00 | 0.00 | 68 | 1006.0 |
| 20260503050005 | 45 | 299 | 3.5 | 8.7 | 0.00 | 0.00 | 0.00 | 68 | 1005.9 |
| 20260503044502 | 45 | 300 | 5.2 | 8.7 | 0.00 | 0.00 | 0.00 | 66 | 1005.8 |
| 20260503043100 | 45 | 9 | 3.5 | 9.6 | 0.00 | 0.00 | 0.00 | 65 | 1005.5 |
| 20260503041600 | 45 | 265 | 7.0 | 12.2 | 0.00 | 0.00 | 0.00 | 65 | 1005.4 |
| 20260503034601 | 44 | 290 | 4.3 | 9.6 | 0.00 | 0.00 | 0.00 | 65 | 1005.2 |
| 20260503033055 | 44 | 278 | 7.8 | 10.4 | 0.00 | 0.00 | 0.00 | 65 | 1005.2 |
| 20260503031552 | 43 | 281 | 7.8 | 11.3 | 0.00 | 0.00 | 0.00 | 66 | 1005.1 |
| 20260503030123 | 43 | 261 | 6.1 | 9.6 | 0.00 | 0.00 | 0.00 | 67 | 1004.9 |
| 20260503024551 | 43 | 266 | 6.1 | 9.6 | 0.00 | 0.00 | 0.00 | 66 | 1004.8 |
| 20260503023049 | 43 | 242 | 5.2 | 10.4 | 0.00 | 0.00 | 0.00 | 67 | 1004.7 |
| 20260503021556 | 42 | 248 | 7.0 | 9.6 | 0.00 | 0.00 | 0.00 | 67 | 1004.6 |
| 20260503020049 | 42 | 250 | 5.2 | 8.7 | 0.00 | 0.00 | 0.00 | 68 | 1004.5 |
| 20260503014602 | 41 | 241 | 3.5 | 6.1 | 0.00 | 0.00 | 0.00 | 68 | 1004.7 |
| 20260503013051 | 41 | 218 | 4.3 | 6.1 | 0.00 | 0.00 | 0.00 | 68 | 1004.6 |
| 20260503011554 | 42 | 258 | 1.7 | 3.5 | 0.00 | 0.00 | 0.00 | 68 | 1004.3 |
| 20260503010058 | 42 | 258 | 3.5 | 6.1 | 0.00 | 0.00 | 0.00 | 68 | 1004.3 |
| 20260503004545 | 42 | 248 | 2.6 | 4.3 | 0.00 | 0.00 | 0.00 | 68 | 1004.3 |
| 20260503003054 | 41 | 134 | 1.7 | 4.3 | 0.00 | 0.00 | 0.00 | 69 | 1004.2 |
| 20260503001542 | 42 | 247 | 1.7 | 7.0 | 0.00 | 0.00 | 0.00 | 69 | 1004.2 |